When you browse on this site, cookies collect data to enhance your experience and personalize the content and advertising you see.
Visit our Privacy Policy to learn more. By continuing to use the site, you agree to this use of cookies and data.
  • In Hungary
  • List of Countries
  • For 7 days
  • Water Temperature
  • Weather Map
  • News
  • Weather Widgets
  • user-avatar
    Login

    Hourly Weather Ibigs

    Today, 22 November, Friday

    Time Temperature Precipitation Wind Pressure Humidity
    00:00 +19°C° 0.1 mm 1 mps 648 mmHg 86%
    01:00 +19°C° 0 mm 1 mps 647 mmHg 85%
    02:00 +19°C° 0.1 mm 1 mps 647 mmHg 85%
    03:00 +18°C° 0.1 mm 1 mps 647 mmHg 85%
    04:00 +18°C° 0.1 mm 1 mps 647 mmHg 85%
    05:00 +19°C° 0.1 mm 1 mps 647 mmHg 84%
    06:00 +18°C° 0.1 mm 0 mps 648 mmHg 83%
    07:00 +21°C° 0 mm 1 mps 649 mmHg 80%
    08:00 +22°C° 0.1 mm 1 mps 649 mmHg 78%
    09:00 +23°C° 0.1 mm 1 mps 650 mmHg 75%
    10:00 +25°C° 0.1 mm 1 mps 650 mmHg 73%
    11:00 +25°C° 0.6 mm 1 mps 649 mmHg 75%
    12:00 +25°C° 0.6 mm 1 mps 648 mmHg 77%
    13:00 +25°C° 0.6 mm 1 mps 648 mmHg 80%
    14:00 +25°C° 0.9 mm 1 mps 647 mmHg 81%
    15:00 +24°C° 0.9 mm 1 mps 646 mmHg 83%
    16:00 +24°C° 0.9 mm 1 mps 646 mmHg 85%
    17:00 +23°C° 0.8 mm 1 mps 646 mmHg 87%
    18:00 +22°C° 0.8 mm 1 mps 646 mmHg 89%
    19:00 +21°C° 0.8 mm 1 mps 647 mmHg 91%
    20:00 +20°C° 0.6 mm 1 mps 647 mmHg 90%
    21:00 +20°C° 0.6 mm 1 mps 648 mmHg 89%
    22:00 +20°C° 0.6 mm 1 mps 648 mmHg 88%
    23:00 +20°C° 0.5 mm 1 mps 648 mmHg 89%

    Tomorrow, 23 November, Saturday

    Time Temperature Precipitation Wind Pressure Humidity
    00:00 +19°C° 0.5 mm 1 mps 648 mmHg 90%
    01:00 +19°C° 0.5 mm 1 mps 647 mmHg 91%
    02:00 +19°C° 0.2 mm 1 mps 647 mmHg 91%
    03:00 +19°C° 0.2 mm 1 mps 647 mmHg 91%
    04:00 +19°C° 0.2 mm 1 mps 647 mmHg 90%
    05:00 +17°C° 0 mm 0 mps 647 mmHg 90%
    06:00 +18°C° 0 mm 0 mps 648 mmHg 89%
    07:00 +18°C° 0 mm 0 mps 648 mmHg 88%
    08:00 +20°C° 0 mm 0 mps 649 mmHg 84%
    09:00 +23°C° 0 mm 1 mps 649 mmHg 80%
    10:00 +24°C° 0 mm 1 mps 650 mmHg 76%
    11:00 +24°C° 0.5 mm 1 mps 649 mmHg 78%
    12:00 +24°C° 0.5 mm 1 mps 648 mmHg 81%
    13:00 +24°C° 0.5 mm 1 mps 647 mmHg 84%
    14:00 +24°C° 1 mm 1 mps 647 mmHg 85%
    15:00 +24°C° 1 mm 1 mps 647 mmHg 85%
    16:00 +24°C° 1 mm 1 mps 646 mmHg 85%
    17:00 +23°C° 1 mm 1 mps 646 mmHg 87%
    18:00 +22°C° 1 mm 1 mps 647 mmHg 89%
    19:00 +21°C° 1 mm 1 mps 647 mmHg 91%
    20:00 +21°C° 0.4 mm 1 mps 647 mmHg 90%
    21:00 +20°C° 0.4 mm 1 mps 648 mmHg 89%
    22:00 +20°C° 0.4 mm 1 mps 648 mmHg 89%
    23:00 +20°C° 0.3 mm 1 mps 648 mmHg 89%

    Day after tomorrow, 24 November, Sunday

    Time Temperature Precipitation Wind Pressure Humidity
    00:00 +20°C° 0.3 mm 1 mps 648 mmHg 90%
    01:00 +20°C° 0.3 mm 1 mps 647 mmHg 90%
    02:00 +19°C° 0.2 mm 1 mps 647 mmHg 91%
    03:00 +19°C° 0.2 mm 1 mps 647 mmHg 91%
    04:00 +19°C° 0.2 mm 1 mps 646 mmHg 91%
    05:00 +18°C° 0 mm 0 mps 647 mmHg 90%
    06:00 +18°C° 0 mm 0 mps 648 mmHg 89%
    07:00 +18°C° 0 mm 0 mps 648 mmHg 87%
    08:00 +20°C° 0.1 mm 0 mps 649 mmHg 84%
    09:00 +23°C° 0.1 mm 1 mps 649 mmHg 81%
    10:00 +24°C° 0.1 mm 1 mps 649 mmHg 78%
    11:00 +24°C° 0.5 mm 1 mps 648 mmHg 81%
    12:00 +24°C° 0.5 mm 1 mps 647 mmHg 83%
    13:00 +24°C° 0.5 mm 1 mps 646 mmHg 86%
    14:00 +24°C° 0.6 mm 1 mps 646 mmHg 86%
    15:00 +22°C° 0.6 mm 0 mps 646 mmHg 87%
    16:00 +22°C° 0.6 mm 0 mps 645 mmHg 87%
    17:00 +21°C° 0.9 mm 0 mps 646 mmHg 89%
    18:00 +22°C° 0.9 mm 1 mps 646 mmHg 91%
    19:00 +21°C° 0.9 mm 1 mps 646 mmHg 92%
    20:00 +21°C° 0.7 mm 1 mps 647 mmHg 92%
    21:00 +21°C° 0.7 mm 1 mps 647 mmHg 92%
    22:00 +21°C° 0.7 mm 1 mps 648 mmHg 92%
    23:00 +20°C° 0.1 mm 1 mps 647 mmHg 91%

    25 November, Monday

    Time Temperature Precipitation Wind Pressure Humidity
    00:00 +20°C° 0.1 mm 1 mps 647 mmHg 91%
    01:00 +20°C° 0.1 mm 1 mps 647 mmHg 90%
    02:00 +20°C° 0.2 mm 1 mps 646 mmHg 90%
    03:00 +20°C° 0.2 mm 1 mps 646 mmHg 90%
    04:00 +19°C° 0.2 mm 1 mps 646 mmHg 90%
    05:00 +18°C° 0.1 mm 0 mps 646 mmHg 90%
    06:00 +18°C° 0.1 mm 0 mps 647 mmHg 90%
    07:00 +19°C° 0.1 mm 0 mps 647 mmHg 90%
    08:00 +20°C° 0.1 mm 0 mps 647 mmHg 85%
    09:00 +23°C° 0.1 mm 1 mps 648 mmHg 81%
    10:00 +24°C° 0.1 mm 1 mps 648 mmHg 76%
    11:00 +25°C° 0.2 mm 1 mps 647 mmHg 76%
    12:00 +26°C° 0.2 mm 1 mps 647 mmHg 76%
    13:00 +26°C° 0.2 mm 2 mps 646 mmHg 76%
    14:00 +26°C° 0.3 mm 1 mps 645 mmHg 78%
    15:00 +25°C° 0.3 mm 1 mps 645 mmHg 80%
    16:00 +25°C° 0.3 mm 1 mps 645 mmHg 82%
    17:00 +24°C° 0.2 mm 1 mps 645 mmHg 85%
    18:00 +23°C° 0.2 mm 1 mps 645 mmHg 88%
    19:00 +22°C° 0.2 mm 1 mps 646 mmHg 91%
    20:00 +21°C° 0.6 mm 1 mps 646 mmHg 90%
    21:00 +21°C° 0.6 mm 1 mps 646 mmHg 90%
    22:00 +20°C° 0.6 mm 1 mps 647 mmHg 89%
    23:00 +20°C° 0.2 mm 1 mps 646 mmHg 89%

    26 November, Tuesday

    Time Temperature Precipitation Wind Pressure Humidity
    00:00 +20°C° 0.2 mm 1 mps 646 mmHg 89%
    01:00 +20°C° 0.2 mm 1 mps 646 mmHg 89%
    02:00 +20°C° 0.1 mm 1 mps 646 mmHg 89%
    03:00 +20°C° 0.1 mm 1 mps 646 mmHg 89%
    04:00 +20°C° 0.1 mm 1 mps 646 mmHg 89%
    05:00 +20°C° 0.2 mm 1 mps 646 mmHg 88%
    06:00 +19°C° 0.2 mm 0 mps 647 mmHg 88%
    07:00 +19°C° 0.2 mm 0 mps 647 mmHg 87%
    08:00 +22°C° 0.2 mm 1 mps 648 mmHg 85%
    09:00 +23°C° 0.2 mm 1 mps 648 mmHg 83%
    10:00 +25°C° 0.2 mm 2 mps 648 mmHg 81%
    11:00 +25°C° 0.5 mm 2 mps 648 mmHg 80%
    12:00 +26°C° 0.5 mm 2 mps 647 mmHg 80%
    13:00 +26°C° 0.5 mm 2 mps 647 mmHg 80%
    14:00 +26°C° 0.5 mm 2 mps 646 mmHg 82%
    15:00 +26°C° 0.5 mm 1 mps 646 mmHg 83%
    16:00 +25°C° 0.5 mm 1 mps 645 mmHg 85%
    17:00 +24°C° 0.4 mm 1 mps 645 mmHg 87%
    18:00 +23°C° 0.4 mm 1 mps 646 mmHg 90%
    19:00 +22°C° 0.4 mm 1 mps 646 mmHg 92%
    20:00 +21°C° 0.6 mm 1 mps 646 mmHg 91%
    21:00 +21°C° 0.6 mm 1 mps 647 mmHg 91%
    22:00 +20°C° 0.6 mm 1 mps 647 mmHg 90%
    23:00 +20°C° 0.4 mm 1 mps 647 mmHg 89%

    27 November, Wednesday

    Time Temperature Precipitation Wind Pressure Humidity
    00:00 +20°C° 0.4 mm 1 mps 646 mmHg 89%
    01:00 +20°C° 0.4 mm 1 mps 646 mmHg 88%
    02:00 +20°C° 0.3 mm 1 mps 646 mmHg 88%
    03:00 +20°C° 0.3 mm 1 mps 646 mmHg 87%
    04:00 +19°C° 0.3 mm 1 mps 646 mmHg 87%
    05:00 +20°C° 0.1 mm 1 mps 647 mmHg 86%
    06:00 +21°C° 0.1 mm 1 mps 647 mmHg 85%
    07:00 +21°C° 0.1 mm 1 mps 648 mmHg 84%
    08:00 +23°C° 0.1 mm 1 mps 648 mmHg 80%
    09:00 +24°C° 0.1 mm 1 mps 648 mmHg 77%
    10:00 +26°C° 0.1 mm 2 mps 649 mmHg 73%
    11:00 +26°C° 0.2 mm 2 mps 648 mmHg 71%
    12:00 +27°C° 0.2 mm 2 mps 648 mmHg 70%
    13:00 +27°C° 0.2 mm 2 mps 647 mmHg 68%
    14:00 +27°C° 0.3 mm 2 mps 647 mmHg 71%
    15:00 +26°C° 0.3 mm 1 mps 646 mmHg 75%
    16:00 +26°C° 0.3 mm 1 mps 646 mmHg 78%
    17:00 +25°C° 0.5 mm 1 mps 646 mmHg 83%
    18:00 +23°C° 0.5 mm 1 mps 646 mmHg 87%
    19:00 +22°C° 0.5 mm 1 mps 647 mmHg 91%
    20:00 +21°C° 0.4 mm 1 mps 647 mmHg 90%
    21:00 +21°C° 0.4 mm 1 mps 647 mmHg 90%
    22:00 +19°C° 0.4 mm 2 mps 648 mmHg 89%
    23:00 +19°C° 0.2 mm 2 mps 647 mmHg 89%
    Show more